Retour au catalogue

STARLINK-32499

ActifCommunicationsVLEO
NORAD 61959·PAYLOAD·🇺🇸 United States

Lancé Nov 14, 2024 depuis Cape Canaveral Space Force Station

Loading…

Prochains Passages (prochaines 24 heures)

TLE

FraisSource: CelesTrak SupGP

Époque: Sep 14, 2026, 22:28 UTC

1 61959C 24210A   26257.93659722 -.00031187  00000+0 -11294-2 0  2571
2 61959  42.9993 190.6587 0001076 264.3827 233.1286 15.27598736    19

Suivez STARLINK-32499 en temps réel avec AllMySat

Download on the App Store